Location: Unspecified
(50.7693°N, 0.0000°E)
Time: 04:10:02
(UTC+00:00)

Transit 4A - Pass Details

Date: 02 July 2019
Orbit: 862 x 982 km, 66.8° (Epoch: 20 July)

Event Time Altitude Azimuth Distance (km) Brightness Sun altitude
Rises 07:01:11 0° 230° (SW) 3,641 10.6 26.5°
Reaches altitude 10° 07:03:45 10° 234° (SW) 2,709 9.9 27.0°
Maximum altitude 07:10:02 59° 314° (NW) 1,122 8.5 27.9°
Drops below altitude 10° 07:16:25 10° 34° (NE) 2,746 10.9 29.0°
Sets 07:19:03 0° 38° (NE) 3,694 11.5 29.4°
